User: anonymous   Login
Location: Unspecified
(0.0000°N, 0.0000°E)
Time: 18:52:50
(UTC+00:00)
Language:

PROITERES - Orbit

View from above orbital plane
View from above orbital plane
View from above satellite
View from above satellite

Ground track
Ground track

The orbit data is extracted from the following two-line orbital elements,

1 38756U 12047B   17145.88689417 +.00000158 +00000-0 +30642-4 0  9995
2 38756 098.2660 270.0136 0011667 188.0306 172.0715 14.76356127253553
Epoch (UTC): 25 May 2017 21:17:07
Eccentricity: 0.0011667
inclination: 98.2660°
perigee height: 632 km
apogee height: 649 km
right ascension of ascending node: 270.0136°
argument of perigee: 188.0306°
revolutions per day: 14.76356127
mean anomaly at epoch: 172.0715°
orbit number at epoch: 25355

The dashed part of the orbit path shows where the satellite is in the earth's shadow,  

DLR